Weather History for KAEX - July, 2013

Change the Weather History Date:

Sunday, July 28, 2013

  Actual Average Record
Temperature  
Mean Temperature 81 °F 83 °F  
Max Temperature 93 °F 93 °F 103 °F (2008)
Min Temperature 69 °F 73 °F 64 °F (1911)
Cooling Degree Days 16 18  
Month to date cooling degree days 468 486  
Year to date cooling degree days 1342 1393  
Since 1 June cooling degree days 949 939  
Growing Degree Days 30 (Base 50)    
Moisture  
Dew Point 71 °F    
Average Humidity 76    
Maximum Humidity 100    
Minimum Humidity 52    
Precipitation  
Precipitation 0.00 in 0.08 in 2.40 in (1908)
Month to date precipitation 3.46 3.39  
Year to date precipitation 32.91 32.49  
Sea Level Pressure  
Sea Level Pressure 29.96 in    
Wind  
Wind Speed 3 mph (East)    
Max Wind Speed 12 mph    
Max Gust Speed 14 mph    
Visibility 9 miles    
Events      
T = Trace of Precipitation, MM = Missing Value Source: NWS Daily Summary

Daily Weather History Graph

Daily Weather History Graph

Search for Another Location

Airport or City:

Trip Planner

Search our weather history database for the weather conditions in past years. The results will help you decide how hot, cold, wet, or windy it might be!

Date:

Astronomy

Jul. 28, 2013 Rise Set
Actual Time 6:24 AM CDT 8:08 PM CDT
Civil Twilight 5:57 AM CDT 8:35 PM CDT
Nautical Twilight 5:25 AM CDT 9:07 PM CDT
Astronomical Twilight 4:51 AM CDT 9:40 PM CDT
Moon No Moon Rise 12:37 PM CDT (7/28)
Length of Visible Light 14h 37m
Length of Day
13h 44m
Waning Gibbous, 60% of the Moon is Illuminated
Jul 28
Waning Gibbous
Jul 29
Last Quarter
Aug 6
New
Aug 14
First Quarter
Aug 20
Full

Hourly Weather History & Observations

Time (CDT) Temp. Heat Index Dew Point Humidity Pressure Visibility Wind Dir Wind Speed Gust Speed Precip Events Conditions
12:53 AM 73.0 °F - 71.1 °F 93% 29.94 in 10.0 mi Calm Calm - N/A   Clear
1:53 AM 71.1 °F - 71.1 °F 100% 29.94 in 6.0 mi SSW 3.5 mph - N/A   Clear
2:53 AM 71.1 °F - 70.0 °F 96% 29.93 in 6.0 mi Calm Calm - N/A   Clear
3:53 AM 71.1 °F - 70.0 °F 96% 29.93 in 5.0 mi Calm Calm - N/A   Clear
4:53 AM 70.0 °F - 69.1 °F 97% 29.94 in 4.0 mi Calm Calm - N/A   Clear
5:53 AM 70.0 °F - 69.1 °F 97% 29.96 in 3.0 mi Calm Calm - N/A   Clear
6:53 AM 72.0 °F - 70.0 °F 93% 29.97 in 6.0 mi Calm Calm - N/A   Overcast
7:53 AM 73.9 °F - 71.1 °F 91% 29.97 in 9.0 mi East 3.5 mph - N/A   Clear
8:53 AM 79.0 °F - 72.0 °F 79% 29.98 in 10.0 mi ENE 3.5 mph - N/A   Clear
9:53 AM 82.0 °F 86.3 °F 71.1 °F 69% 29.99 in 10.0 mi Calm Calm - N/A   Clear
10:53 AM 84.0 °F 89.6 °F 72.0 °F 67% 29.99 in 10.0 mi Variable 3.5 mph - N/A   Mostly Cloudy
11:38 AM 87.8 °F 93.8 °F 71.6 °F 58% 29.98 in 10.0 mi East 3.5 mph - N/A   Scattered Clouds
11:53 AM 84.9 °F 90.1 °F 71.1 °F 63% 29.99 in 10.0 mi NE 3.5 mph - N/A   Partly Cloudy
12:53 PM 88.0 °F 93.8 °F 71.1 °F 57% 29.98 in 10.0 mi Calm Calm - N/A   Scattered Clouds
1:53 PM 90.0 °F 96.4 °F 71.1 °F 54% 29.97 in 10.0 mi Calm Calm - N/A   Mostly Cloudy
2:53 PM 91.0 °F 97.6 °F 71.1 °F 52% 29.96 in 10.0 mi ENE 4.6 mph - N/A   Clear
3:53 PM 91.0 °F 97.6 °F 71.1 °F 52% 29.95 in 10.0 mi ESE 6.9 mph - N/A   Scattered Clouds
4:53 PM 91.9 °F 98.4 °F 71.1 °F 50% 29.94 in 10.0 mi Variable 6.9 mph - N/A   Partly Cloudy
5:53 PM 91.0 °F 97.6 °F 71.1 °F 52% 29.94 in 10.0 mi ENE 3.5 mph - N/A   Clear
6:53 PM 90.0 °F 96.4 °F 71.1 °F 54% 29.94 in 10.0 mi ENE 6.9 mph - N/A   Scattered Clouds
7:53 PM 84.9 °F 90.1 °F 71.1 °F 63% 29.95 in 10.0 mi ENE 6.9 mph - N/A   Scattered Clouds
8:53 PM 82.9 °F 87.5 °F 71.1 °F 67% 29.97 in 10.0 mi East 4.6 mph - N/A   Clear
9:53 PM 81.0 °F 84.9 °F 71.1 °F 72% 29.99 in 10.0 mi ESE 5.8 mph - N/A   Clear
10:53 PM 77.0 °F - 73.0 °F 88% 30.01 in 10.0 mi SSW 5.8 mph - N/A   Clear
11:53 PM 75.9 °F - 73.0 °F 91% 30.01 in 10.0 mi Calm Calm - N/A   Partly Cloudy